Regional Weather Roundup
Issued by NWS Green Bay, WI

Home | Current Version | Previous Version | Graphics & Text | Print | Product List | Glossary Off
Versions: 1 2 3 4 5 6 7 8 9 10 11 12 13 14 15 16 17 18 19 20 21 22 23 24 25 26 27 28 29 30 31 32 33 34 35 36 37 38 39 40 41 42 43 44 45 46 47 48 49 50

000
ASUS43 KGRB 040100
RWRGRB

NORTH-CENTRAL AND NORTHEAST WISCONSIN REGIONAL WEATHER ROUNDUP
NATIONAL WEATHER SERVICE GREEN BAY WI
800 PM CDT FRI JUL 03 2015

WIZ005-009-010>012-018-019-040200-
NORTH CENTRAL WISCONSIN

CITY           SKY/WX    TMP DP  RH WIND       PRES   REMARKS
IRONWOOD       MOCLDY    66  64  94 S6        29.84F
MANITOWISH WTR NOT AVBL
ARBOR VITAE    NOT AVBL
EAGLE RIVER    NOT AVBL
LAND O LAKES   NOT AVBL
RHINELANDER    CLEAR     69  59  70 SW3       29.91S
PHILLIPS       NOT AVBL
ANTIGO         NOT AVBL
TOMAHAWK       NOT AVBL
MERRILL        NOT AVBL
$$

WIZ013-073-040200-
NORTHEAST WISCONSIN

CITY           SKY/WX    TMP DP  RH WIND       PRES   REMARKS
IRON MOUNTAIN  CLEAR     71  58  63 SW5       29.86S
MARINETTE      CLEAR     72  54  53 SW6       29.86F
$$

WIZ017-030-035>037-045-040200-
CENTRAL WISCONSIN

CITY           SKY/WX    TMP DP  RH WIND       PRES   REMARKS
MEDFORD        NOT AVBL
WAUSAU         MOCLDY    73  55  53 W8        29.89F
MOSINEE        NOT AVBL
MARSHFIELD     PTCLDY    71  56  58 W5        29.92R
WISC RAPIDS    CLEAR     72  56  57 W5        29.92S
STEVENS POINT  NOT AVBL
WAUPACA        NOT AVBL
SHAWANO        NOT AVBL
CLINTONVILLE   NOT AVBL
$$

WIZ038-039-048-051-040200-
FOX VALLEY

CITY           SKY/WX    TMP DP  RH WIND       PRES   REMARKS
NWS GREEN BAY  MOCLDY    72  56  57 S3        29.89S
APPLETON       MOCLDY    70  55  60 SW5       29.91S
OSHKOSH        CLEAR     70  56  61 SW3       29.90S
FOND DU LAC    CLEAR     71  54  54 SW5       29.91S
$$

WIZ022-050-052-040200-
EAST CENTRAL WISCONSIN

CITY           SKY/WX    TMP DP  RH WIND       PRES   REMARKS
STURGEON BAY   MOCLDY    68  54  60 S7        29.91S
MANITOWOC      NOT AVBL
SHEBOYGAN      CLEAR     65  52  62 S7        29.91S
$$

LMZ563-521-522-541>543-040200-
LAKESHORE

STATION/POSITION TIME  TEMP    WIND        PRES    VSBY  WAVE
                       AIR SEA DIR/SP/G                  HT/PER
                 (UTC) (F)     (DEG/KT/KT) (MB)    (MI)  (FT/S)
SHEBOYGAN LKSHOR 0000   65     180/  9/  9 1013.2F
KEWAUNEE LKSHORE 0000   65     180/ 10/ 11 1011.9F
ALGOMA MARINA    0010          220/ 12/ 13   N/A
NORTHPORT PIER   0000   66     160/  4/  8 1011.5F
N MID LAKE BUOY  2350   50 43  210/ 10/ 12 1012.1F         2/ 4
S GREEN BAY BUOY 0000   71 69  220/  8/ 10 1013.3
CHAMBERS ISLAND  0000   71     180/  7/ 11 1011.5F
MENOMINEE LKSHOR 0000   72     190/  5/  7 1012.2F
$$



USA.gov is the U.S. government's official web portal to all federal, state and local government web resources and services.